N324JR KSGJ-KDAB

Flight info

Callsign N324JR
Flight time 0h 38m
Altitude 1500
Route DCT
Aircraft C152/L-SFG/C

Departure

Time 2026-05-04 01:11
Airport Northeast Florida Regional Airport (KSGJ)

Arrival

Time 2026-05-04 01:50
Airport Daytona Beach International Airport (KDAB)
Time Latitude Longitude Altitude Speed Heading
2026-05-04 00:57 29.95442 -81.34199 13 ft 0 kts 20°
2026-05-04 00:59 29.95457 -81.34194 13 ft 0 kts 14°
2026-05-04 01:05 29.95478 -81.34190 13 ft 0 kts
2026-05-04 01:05 29.95488 -81.34177 13 ft 0 kts 131°
2026-05-04 01:06 29.95487 -81.34176 13 ft 1 kts 141°
2026-05-04 01:06 29.95472 -81.34189 13 ft 0 kts 211°
2026-05-04 01:06 29.95462 -81.34193 13 ft 4 kts 197°
2026-05-04 01:06 29.95459 -81.34193 13 ft 1 kts 173°
2026-05-04 01:07 29.95449 -81.34189 13 ft 1 kts 148°
2026-05-04 01:07 29.95432 -81.34171 13 ft 0 kts 124°
2026-05-04 01:08 29.95422 -81.34149 14 ft 6 kts 114°
2026-05-04 01:08 29.95402 -81.34123 14 ft 0 kts 115°
2026-05-04 01:08 29.95404 -81.34115 14 ft 0 kts 58°
2026-05-04 01:10 29.95415 -81.34093 14 ft 10 kts 62°
2026-05-04 01:10 29.95536 -81.33827 18 ft 62 kts 63°
2026-05-04 01:11 29.95758 -81.33343 214 ft 67 kts 62°
2026-05-04 01:11 29.95960 -81.32891 501 ft 60 kts 63°
2026-05-04 01:11 29.95992 -81.32430 746 ft 62 kts 108°
2026-05-04 01:11 29.95663 -81.31989 873 ft 81 kts 135°
2026-05-04 01:12 29.95177 -81.31639 1064 ft 83 kts 151°
2026-05-04 01:12 29.94631 -81.31382 1238 ft 83 kts 149°
2026-05-04 01:12 29.94086 -81.31118 1363 ft 89 kts 153°
2026-05-04 01:12 29.93495 -81.30834 1447 ft 93 kts 150°
2026-05-04 01:13 29.92904 -81.30529 1521 ft 95 kts 148°
2026-05-04 01:13 29.92331 -81.30187 1590 ft 91 kts 150°
2026-05-04 01:13 29.91724 -81.29919 1532 ft 95 kts 155°
2026-05-04 01:13 29.91108 -81.29676 1491 ft 96 kts 154°
2026-05-04 01:14 29.90501 -81.29402 1480 ft 92 kts 153°
2026-05-04 01:14 29.89897 -81.29131 1440 ft 92 kts 152°
2026-05-04 01:14 29.89318 -81.28836 1420 ft 93 kts 150°
2026-05-04 01:14 29.88731 -81.28552 1441 ft 88 kts 152°
2026-05-04 01:15 29.88155 -81.28278 1399 ft 92 kts 149°
2026-05-04 01:15 29.87578 -81.27943 1411 ft 92 kts 148°
2026-05-04 01:15 29.87017 -81.27606 1442 ft 91 kts 149°
2026-05-04 01:15 29.86419 -81.27329 1414 ft 94 kts 157°
2026-05-04 01:16 29.85800 -81.27111 1458 ft 90 kts 156°
2026-05-04 01:16 29.85217 -81.26860 1475 ft 89 kts 152°
2026-05-04 01:16 29.84656 -81.26573 1512 ft 87 kts 150°
2026-05-04 01:16 29.84108 -81.26300 1508 ft 89 kts 155°
2026-05-04 01:17 29.83514 -81.26073 1520 ft 88 kts 158°
2026-05-04 01:17 29.82938 -81.25831 1565 ft 88 kts 156°
2026-05-04 01:17 29.82354 -81.25598 1574 ft 90 kts 157°
2026-05-04 01:17 29.81774 -81.25358 1616 ft 88 kts 155°
2026-05-04 01:18 29.81175 -81.25127 1577 ft 93 kts 158°
2026-05-04 01:18 29.80578 -81.24925 1648 ft 89 kts 158°
2026-05-04 01:18 29.79949 -81.24702 1523 ft 96 kts 155°
2026-05-04 01:18 29.79361 -81.24438 1532 ft 90 kts 153°
2026-05-04 01:19 29.78764 -81.24195 1469 ft 90 kts 156°
2026-05-04 01:19 29.78177 -81.23916 1401 ft 93 kts 150°
2026-05-04 01:19 29.77601 -81.23654 1426 ft 86 kts 154°
2026-05-04 01:19 29.77009 -81.23442 1393 ft 92 kts 160°
2026-05-04 01:20 29.76599 -81.23317 1405 ft 89 kts 158°
2026-05-04 01:20 29.75991 -81.23192 1381 ft 91 kts 167°
2026-05-04 01:20 29.75168 -81.23032 1383 ft 90 kts 159°
2026-05-04 01:20 29.74562 -81.22900 1441 ft 86 kts 167°
2026-05-04 01:21 29.73968 -81.22774 1405 ft 90 kts 159°
2026-05-04 01:21 29.73570 -81.22653 1458 ft 84 kts 159°
2026-05-04 01:21 29.73021 -81.22450 1477 ft 87 kts 153°
2026-05-04 01:21 29.72470 -81.22158 1503 ft 87 kts 153°
2026-05-04 01:22 29.71900 -81.21913 1504 ft 88 kts 155°
2026-05-04 01:22 29.71341 -81.21658 1557 ft 86 kts 152°
2026-05-04 01:22 29.70772 -81.21430 1581 ft 87 kts 160°
2026-05-04 01:22 29.70195 -81.21190 1583 ft 89 kts 150°
2026-05-04 01:23 29.69633 -81.20912 1592 ft 89 kts 151°
2026-05-04 01:23 29.69039 -81.20686 1597 ft 90 kts 165°
2026-05-04 01:23 29.68828 -81.20645 1570 ft 92 kts 166°
2026-05-04 01:24 29.67224 -81.20111 1528 ft 92 kts 159°
2026-05-04 01:24 29.66593 -81.19937 1492 ft 94 kts 161°
2026-05-04 01:24 29.65978 -81.19737 1472 ft 94 kts 157°
2026-05-04 01:24 29.65372 -81.19465 1503 ft 85 kts 150°
2026-05-04 01:25 29.64807 -81.19234 1475 ft 92 kts 158°
2026-05-04 01:25 29.64203 -81.19005 1446 ft 91 kts 155°
2026-05-04 01:25 29.63615 -81.18752 1474 ft 86 kts 152°
2026-05-04 01:25 29.63057 -81.18486 1439 ft 90 kts 156°
2026-05-04 01:26 29.62456 -81.18288 1465 ft 86 kts 156°
2026-05-04 01:26 29.61890 -81.18031 1464 ft 89 kts 155°
2026-05-04 01:26 29.61293 -81.17869 1508 ft 87 kts 159°
2026-05-04 01:26 29.60710 -81.17628 1463 ft 90 kts 149°
2026-05-04 01:27 29.60152 -81.17373 1554 ft 84 kts 155°
2026-05-04 01:27 29.59585 -81.17139 1534 ft 89 kts 154°
2026-05-04 01:27 29.59026 -81.16863 1575 ft 85 kts 151°
2026-05-04 01:27 29.58442 -81.16663 1559 ft 90 kts 161°
2026-05-04 01:28 29.57845 -81.16495 1582 ft 87 kts 158°
2026-05-04 01:28 29.57263 -81.16247 1582 ft 87 kts 152°
2026-05-04 01:28 29.56702 -81.15962 1565 ft 88 kts 150°
2026-05-04 01:28 29.56109 -81.15697 1506 ft 94 kts 155°
2026-05-04 01:29 29.55506 -81.15449 1544 ft 90 kts 152°
2026-05-04 01:29 29.54935 -81.15167 1540 ft 92 kts 152°
2026-05-04 01:29 29.54325 -81.14895 1484 ft 95 kts 154°
2026-05-04 01:29 29.53735 -81.14616 1503 ft 92 kts 149°
2026-05-04 01:30 29.53164 -81.14262 1436 ft 95 kts 146°
2026-05-04 01:30 29.52577 -81.13919 1396 ft 95 kts 151°
2026-05-04 01:30 29.51970 -81.13653 1381 ft 93 kts 153°
2026-05-04 01:30 29.51365 -81.13376 1361 ft 92 kts 151°
2026-05-04 01:31 29.50784 -81.13075 1356 ft 91 kts 150°
2026-05-04 01:31 29.50207 -81.12785 1361 ft 90 kts 151°
2026-05-04 01:31 29.49642 -81.12495 1364 ft 90 kts 150°
2026-05-04 01:31 29.49043 -81.12261 1391 ft 88 kts 156°
2026-05-04 01:32 29.48464 -81.12039 1387 ft 90 kts 154°
2026-05-04 01:32 29.47887 -81.11756 1341 ft 91 kts 150°
2026-05-04 01:32 29.47305 -81.11478 1309 ft 91 kts 152°
2026-05-04 01:32 29.46719 -81.11225 1390 ft 87 kts 152°
2026-05-04 01:33 29.46173 -81.10941 1436 ft 88 kts 147°
2026-05-04 01:33 29.45613 -81.10660 1475 ft 87 kts 150°
2026-05-04 01:33 29.45022 -81.10399 1476 ft 92 kts 151°
2026-05-04 01:33 29.44462 -81.10113 1533 ft 90 kts 149°
2026-05-04 01:34 29.43871 -81.09870 1601 ft 87 kts 154°
2026-05-04 01:34 29.43283 -81.09649 1605 ft 91 kts 153°
2026-05-04 01:34 29.42700 -81.09410 1619 ft 90 kts 153°
2026-05-04 01:34 29.42107 -81.09176 1637 ft 87 kts 154°
2026-05-04 01:35 29.41528 -81.08928 1621 ft 90 kts 152°
2026-05-04 01:35 29.40936 -81.08722 1647 ft 91 kts 161°
2026-05-04 01:35 29.40297 -81.08583 1618 ft 93 kts 158°
2026-05-04 01:35 29.39682 -81.08344 1539 ft 94 kts 154°
2026-05-04 01:36 29.39063 -81.08119 1503 ft 94 kts 159°
2026-05-04 01:36 29.38430 -81.07925 1448 ft 95 kts 157°
2026-05-04 01:36 29.37791 -81.07716 1416 ft 94 kts 157°
2026-05-04 01:36 29.37171 -81.07495 1366 ft 94 kts 155°
2026-05-04 01:37 29.36560 -81.07259 1368 ft 92 kts 156°
2026-05-04 01:37 29.35943 -81.07056 1354 ft 92 kts 156°
2026-05-04 01:37 29.35344 -81.06817 1336 ft 91 kts 149°
2026-05-04 01:37 29.34756 -81.06514 1313 ft 92 kts 149°
2026-05-04 01:38 29.34173 -81.06237 1338 ft 90 kts 150°
2026-05-04 01:38 29.33619 -81.05927 1358 ft 87 kts 147°
2026-05-04 01:38 29.33059 -81.05640 1340 ft 89 kts 152°
2026-05-04 01:38 29.32481 -81.05421 1364 ft 88 kts 154°
2026-05-04 01:39 29.31897 -81.05168 1354 ft 89 kts 150°
2026-05-04 01:39 29.31301 -81.04954 1377 ft 89 kts 158°
2026-05-04 01:39 29.30729 -81.04736 1385 ft 88 kts 153°
2026-05-04 01:39 29.30170 -81.04486 1402 ft 86 kts 148°
2026-05-04 01:40 29.29594 -81.04255 1412 ft 85 kts 156°
2026-05-04 01:40 29.29040 -81.04027 1408 ft 87 kts 151°
2026-05-04 01:40 29.28496 -81.03767 1453 ft 84 kts 149°
2026-05-04 01:40 29.27960 -81.03509 1475 ft 85 kts 147°
2026-05-04 01:41 29.27423 -81.03227 1481 ft 85 kts 149°
2026-05-04 01:41 29.26894 -81.02979 1525 ft 82 kts 148°
2026-05-04 01:41 29.26371 -81.02699 1536 ft 82 kts 146°
2026-05-04 01:41 29.25847 -81.02425 1566 ft 86 kts 150°
2026-05-04 01:42 29.25281 -81.02196 1611 ft 85 kts 152°
2026-05-04 01:42 29.24724 -81.01967 1614 ft 87 kts 151°
2026-05-04 01:42 29.24172 -81.01737 1659 ft 85 kts 159°
2026-05-04 01:42 29.23579 -81.01544 1648 ft 87 kts 150°
2026-05-04 01:43 29.23024 -81.01274 1637 ft 90 kts 146°
2026-05-04 01:43 29.22460 -81.00941 1608 ft 91 kts 142°
2026-05-04 01:43 29.21907 -81.00571 1566 ft 93 kts 140°
2026-05-04 01:43 29.21371 -81.00167 1557 ft 90 kts 138°
2026-05-04 01:44 29.20853 -80.99830 1607 ft 86 kts 144°
2026-05-04 01:44 29.20247 -80.99489 1276 ft 102 kts 149°
2026-05-04 01:44 29.19645 -80.99294 1253 ft 83 kts 164°
2026-05-04 01:44 29.19071 -80.99204 1117 ft 83 kts 161°
2026-05-04 01:45 29.18511 -80.98998 1023 ft 81 kts 150°
2026-05-04 01:45 29.18004 -80.98868 1061 ft 74 kts 173°
2026-05-04 01:45 29.17311 -80.99882 924 ft 104 kts 245°
2026-05-04 01:46 29.16944 -81.00580 955 ft 98 kts 234°
2026-05-04 01:46 29.16536 -81.01212 944 ft 100 kts 231°
2026-05-04 01:46 29.16068 -81.01818 940 ft 100 kts 230°
2026-05-04 01:46 29.15630 -81.02435 932 ft 100 kts 231°
2026-05-04 01:47 29.15278 -81.03117 944 ft 99 kts 242°
2026-05-04 01:47 29.14969 -81.03837 921 ft 103 kts 246°
2026-05-04 01:47 29.14750 -81.04609 940 ft 100 kts 256°
2026-05-04 01:47 29.14590 -81.05382 950 ft 101 kts 265°
2026-05-04 01:48 29.14479 -81.06173 968 ft 99 kts 268°
2026-05-04 01:48 29.14779 -81.06771 940 ft 89 kts 346°
2026-05-04 01:48 29.15368 -81.07025 830 ft 91 kts 343°
2026-05-04 01:48 29.15942 -81.07275 777 ft 83 kts 355°
2026-05-04 01:49 29.16447 -81.07073 670 ft 79 kts 33°
2026-05-04 01:49 29.16965 -81.06787 476 ft 82 kts 32°
2026-05-04 01:49 29.17311 -81.06349 292 ft 65 kts 58°
2026-05-04 01:49 29.17497 -81.05951 138 ft 53 kts 62°
2026-05-04 01:50 29.17636 -81.05606 47 ft 39 kts 62°
2026-05-04 01:50 29.17724 -81.05396 36 ft 23 kts 63°
2026-05-04 01:50 29.17783 -81.05246 35 ft 19 kts 64°
2026-05-04 01:50 29.17839 -81.05110 35 ft 19 kts 70°
2026-05-04 01:51 29.17892 -81.04977 34 ft 15 kts 64°
2026-05-04 01:51 29.17937 -81.04946 35 ft 6 kts 345°
2026-05-04 01:51 29.17942 -81.04948 35 ft 0 kts 342°
2026-05-04 01:52 29.17968 -81.04958 36 ft 7 kts 338°
2026-05-04 01:52 29.18021 -81.04985 36 ft 11 kts 338°
2026-05-04 01:52 29.18035 -81.04992 37 ft 0 kts 336°
2026-05-04 01:52 29.18057 -81.04995 37 ft 8 kts 28°
2026-05-04 01:53 29.18076 -81.04974 37 ft 1 kts 356°
2026-05-04 01:53 29.18092 -81.04971 37 ft 1 kts 53°
2026-05-04 01:53 29.18096 -81.04953 37 ft 3 kts 107°
2026-05-04 01:53 29.18092 -81.04949 37 ft 2 kts 154°
2026-05-04 01:54 29.18089 -81.04947 37 ft 0 kts 152°